#timestamp,LO_Frequency,Hit,StdDev 
1546700415.9,286046999.3,N
1546700435.7,286046996.5,Y
1546700455.6,286047001.2,P
1546700475.4,286047001.2,N
1546700495.2,286047001.0,N
1546700515.1,286047000.9,N
1546700516.0,286047000.9,N
1546700535.8,286047001.5,N
1546700555.6,286047000.4,N
1546700575.5,286047001.2,N
1546700595.3,286047000.6,N
1546700615.1,286046998.2,N
1546700635.9,286046999.5,N
1546700655.7,286046999.6,N
1546700675.6,286046996.6,Y
1546700695.4,286046995.6,P
1546700715.2,286046996.6,N
1546700735.1,286046997.9,N
1546700736.0,286046997.9,N
1546700755.8,286046996.8,N
1546700775.7,286046999.6,N
1546700795.5,286046998.5,N
1546700815.3,286046998.3,N
1546700835.2,286046998.2,N
1546700855.9,286047000.4,N
1546700875.7,286046998.3,N
1546700895.6,286046998.4,N
1546700915.4,286046998.4,N
1546700935.2,286046999.0,N
1546700955.1,286046998.3,N
1546700956.0,286046998.3,N
1546700975.8,286046998.4,N
1546700995.7,286046998.1,N
1546701015.5,286046999.6,N
1546701035.3,286046996.9,N
1546701055.2,286046996.5,Y
1546701075.0,286046998.1,P
1546701075.9,286046998.1,P
1546701095.8,286046998.8,P
1546701115.6,286047000.6,N
1546701135.4,286047001.0,N
1546701155.3,286047000.7,N
1546701175.1,286047000.5,N
1546701176.0,286047000.5,N
1546701195.8,286047000.2,N
1546701215.7,286046999.8,N
1546701235.5,286047003.1,N
1546701255.4,286047004.3,Y
1546701275.2,286047001.4,P
1546701295.0,286047002.3,P
1546701295.9,286047002.3,N
1546701315.8,286047004.4,Y
1546701335.6,286047002.8,P
1546701355.4,286046999.9,N
1546701375.3,286046999.7,N
1546701395.1,286047002.8,N
1546701415.9,286046998.7,N
1546701435.7,286046999.4,N
1546701455.5,286046998.2,N
1546701475.4,286047000.6,N
1546701495.2,286046999.7,N
1546701515.0,286047000.5,N
1546701515.9,286047000.5,N
1546701535.8,286046998.6,N
1546701555.6,286046999.6,N
1546701575.5,286046998.7,N
1546701595.3,286047000.5,N
1546701615.1,286047001.1,N
1546701635.9,286047000.8,N
1546701655.7,286046999.3,N
1546701675.5,286046998.9,N
1546701695.4,286046998.7,N
1546701715.2,286047000.4,N
1546701735.0,286046998.9,N
1546701736.0,286046998.9,N
1546701755.8,286046999.8,N
1546701775.6,286047002.2,N
1546701795.5,286046999.8,N
1546701815.3,286047000.0,N
1546701835.1,286047000.8,N
1546701855.9,286047001.2,N
1546701875.7,286046998.1,N
1546701895.5,286047000.6,N
1546701915.4,286047002.1,N
1546701935.2,286047000.1,N
1546701955.1,286047001.9,N
1546701956.0,286047001.9,N
1546701975.8,286047003.3,N
1546701995.6,286047005.4,Y
1546702015.5,286047001.4,P
1546702035.3,286047002.7,P
1546702055.1,286046999.9,N
1546702075.9,286047002.5,N
1546702095.7,286047004.2,Y
1546702115.6,286047002.6,P
1546702135.4,286047001.1,N
1546702155.2,286046999.6,N
1546702175.1,286046996.9,N
1546702176.0,286046996.9,N
1546702195.8,286046998.7,N
1546702215.6,286046996.5,N
1546702235.5,286046999.2,N
1546702255.3,286046999.2,N
1546702275.2,286047000.0,N
1546702295.9,286047001.0,N
1546702315.7,286046996.5,N
1546702335.6,286046998.2,N
1546702355.4,286046998.7,N
1546702375.2,286046996.9,N
1546702395.1,286046999.6,N
1546702396.0,286046999.6,N
1546702415.8,286046997.4,N
1546702435.7,286046998.5,N
1546702455.5,286046999.9,N
1546702475.3,286047002.4,N
1546702495.2,286046999.8,N
1546702515.0,286047000.1,N
1546702515.9,286047000.1,N
1546702535.7,286047001.8,N
1546702555.6,286047004.3,N
1546702575.4,286047002.0,N
1546702595.3,286047002.8,N
1546702615.1,286047003.5,N
1546702616.0,286047003.5,N
1546702635.8,286047001.3,N
1546702655.7,286047001.9,N
1546702675.5,286047000.0,N
1546702695.3,286047000.8,N
1546702715.2,286047000.8,N
1546702735.0,286046998.1,N
1546702735.9,286046998.1,N
1546702755.8,286046999.2,N
1546702775.6,286047001.2,N
1546702795.4,286046998.8,N
1546702815.3,286046999.5,N
1546702835.1,286046998.6,N
1546702855.8,286046998.7,N
1546702875.7,286046997.0,N
1546702895.5,286046997.5,N
1546702915.4,286047001.1,N
1546702935.2,286046998.4,N
1546702955.0,286046998.7,N
1546702955.9,286046998.7,N
1546702975.8,286046998.3,N
1546702995.6,286046996.5,N
1546703015.4,286046996.8,N
1546703035.3,286046997.2,N
1546703055.1,286046997.2,N
1546703075.9,286046999.6,N
1546703095.7,286046997.0,N
1546703115.5,286046996.5,N
1546703135.4,286046997.2,N
1546703155.2,286046997.2,N
1546703175.0,286046997.5,N
1546703175.9,286046997.5,N
1546703195.8,286046995.4,Y
1546703215.6,286046997.2,P
1546703235.5,286046999.1,N
1546703255.3,286047001.1,N
1546703275.1,286047000.0,N
1546703295.9,286046999.0,N
1546703315.7,286046998.1,N
1546703335.5,286047000.9,N
1546703355.4,286047000.7,N
1546703375.2,286046998.1,N
1546703395.1,286046999.0,N
1546703396.0,286046999.0,N
1546703415.8,286046999.8,N
1546703435.6,286047002.8,N
1546703455.5,286047002.8,N
1546703475.3,286047000.2,N
1546703495.1,286046998.7,N
1546703515.9,286047001.0,N
1546703535.7,286047004.3,N
1546703555.6,286047003.2,N
1546703575.4,286047003.7,N
1546703595.2,286047002.1,N
1546703615.1,286047004.3,N
1546703616.0,286047004.3,N
1546703635.8,286047002.5,N
1546703655.6,286046998.1,N
1546703675.5,286047001.4,N
1546703695.3,286047002.0,N
1546703715.1,286047004.0,N
1546703735.9,286047000.2,N
1546703755.7,286047002.5,N
1546703775.6,286047001.6,N
1546703795.4,286047004.2,N
1546703815.2,286047004.2,N
1546703835.1,286046999.7,N
1546703836.0,286046999.7,N
1546703855.8,286047000.5,N
1546703875.7,286047004.3,N
1546703895.5,286047002.1,N
1546703915.3,286047001.3,N
1546703935.2,286047005.5,N
1546703955.0,286047003.1,N
1546703955.9,286047003.1,N
1546703975.8,286047003.4,N
1546703995.6,286047001.6,N
